C/2017 F2 ( PanSTARRS )

Japanese version
Home page
Updated on October 8, 2017

---------------------------------------------------------------------

* Profile

Discovery Date March 31, 2017
Magnitude 21.2 mag
Discoverer Pan-STARRS 1 telescope (Haleakala)

* Pictures

* Orbital Elements

Epoch 2017 Nov. 23.0 TT = JDT 2458080.5
T 2017 Nov. 26.04504 TT                                 MPCW
q   6.9274778            (2000.0)            P               Q
z  -0.0006518      Peri.  134.88438     -0.87733978     -0.22804011
 +/-0.0000281      Node    38.67588     -0.22088109     -0.58921302
e   1.0045150      Incl.   42.50468     +0.42601227     -0.77512949
From 40 observations 2017 Mar. 31-July 19, mean residual 0".5.

* Magnitudes Graph

        m1 = 7.5 + 5 log d + 10.0 log r

---------------------------------------------------------------------

The orbital elements are published on M.P.E.C. 2017-T14.
The magnitudes graphs are made with Comet for Windows.

---------------------------------------------------------------------

Copyright(C) Seiichi Yoshida (comet@aerith.net). All rights reserved.